JCSAT-17

Last updated on Wed Sep 17 2025 00:02:50 GMT+0000 (Coordinated Universal Time)

1 45245U 20013A 25259.54454308 -.00000331 00000+0 00000+0 0 9998 2 45245 5.4187 354.1329 0004110 182.8211 150.7912 1.00270051 20488
UTC large
Height (km)
Speed (km/s)
/
Latitude / Longitude
Inclination (degrees)
Orbital Period (minutes)
Azimuth
Elevation
Range (km)
Doppler Factor

Next 0 passes for location: London (51.5072 / 0.1276)

Sorry there are no passes over London.